#timestamp,LO_Frequency,Hit,StdDev 
1609205375.9,286046999.1,P
1609205395.7,286046998.5,P
1609205415.6,286046998.7,P
1609205435.4,286047001.2,Y
1609205455.2,286046999.9,P
1609205475.1,286047000.9,N
1609205476.0,286047000.9,N
1609205495.8,286047000.9,N
1609205515.6,286047002.3,N
1609205535.5,286046999.9,N
1609205555.3,286046999.7,N
1609205575.2,286047000.4,N
1609205595.9,286047000.2,N
1609205615.7,286047001.4,N
1609205635.6,286047004.4,Y
1609205655.4,286047002.7,P
1609205675.2,286047001.9,N
1609205695.1,286047004.0,P
1609205696.0,286047004.0,Y
1609205715.8,286047002.1,P
1609205735.7,286047002.3,P
1609205755.5,286047000.2,N
1609205775.3,286047000.9,N
1609205795.2,286046998.8,N
1609205815.0,286046998.4,N
1609205815.9,286046998.4,N
1609205835.8,286046998.7,N
1609205855.6,286046999.2,N
1609205875.4,286046997.4,N
1609205895.3,286046999.2,N
1609205915.1,286046998.7,N
1609205935.8,286046996.9,N
1609205955.7,286047000.2,N
1609205975.5,286047002.7,N
1609205995.4,286047000.6,N
1609206015.2,286047000.0,N
1609206035.0,286047000.8,N
1609206035.9,286047000.8,N
1609206055.8,286047000.5,N
1609206075.6,286047000.3,N
1609206095.4,286047002.8,N
1609206115.3,286047001.7,N
1609206135.1,286047004.0,N
1609206155.9,286047003.3,N
1609206175.7,286047002.0,N
1609206195.5,286047003.4,N
1609206215.4,286047004.1,N
1609206235.2,286047003.1,N
1609206255.0,286047005.4,N
1609206256.0,286047005.4,N
1609206275.8,286047004.6,N
1609206295.6,286047004.9,N
1609206315.5,286047007.5,Y
1609206335.3,286047007.0,P
1609206355.1,286047004.6,N
1609206375.9,286047006.5,N
1609206395.7,286047007.3,Y
1609206415.6,286047001.4,P
1609206435.4,286047002.5,N
1609206455.2,286047001.6,N
1609206475.1,286047002.4,N
1609206476.0,286047002.4,N
1609206495.8,286047000.8,N
1609206515.6,286047000.4,N
1609206535.5,286047002.7,N
1609206555.3,286046999.7,N
1609206575.2,286047004.3,Y
1609206595.9,286047000.2,P
1609206615.7,286046999.8,N
1609206635.6,286047001.5,N
1609206655.4,286047001.7,N
1609206675.2,286047001.4,N
1609206695.1,286047004.3,Y
1609206696.0,286047004.3,P
1609206715.8,286047003.9,N
1609206735.7,286047001.4,N
1609206755.5,286047001.8,N
1609206775.3,286047001.4,N
1609206795.2,286047002.9,N
1609206815.0,286047003.6,N
1609206815.9,286047003.6,N
1609206835.8,286047001.5,N
1609206855.6,286047001.3,N
1609206875.4,286047003.4,N
1609206895.3,286047004.7,Y
1609206915.1,286047003.1,P
1609206935.9,286047005.3,P
1609206955.7,286047003.5,N
1609206975.5,286047005.5,Y
1609206995.4,286047002.3,P
1609207015.2,286047001.4,N
1609207035.1,286047001.2,N
1609207036.0,286047001.2,N
1609207055.8,286047002.8,N
1609207075.6,286047001.3,N
1609207095.5,286047001.4,N
1609207115.3,286047003.8,Y
1609207135.2,286047001.6,P
1609207155.9,286047002.2,P
1609207175.7,286047001.9,P
1609207195.6,286047003.4,Y
